History Data

Date (GMT-7:00) CPM ACPM uSv/h Latitude Longitude Altitude CO CO2 TVOC HCHO Air Pressure Temperature Humidity Type
2026-03-19 08:23:35 19 17.90 0.095000 41.649648 41.62752893 0 0 0 0 0 0 0 0 STD5.60
2026-03-19 08:18:33 21 19.70 0.105000 41.649648 41.62752893 0 0 0 0 0 0 0 0 STD5.60
2026-03-19 08:13:31 21 18.90 0.105000 41.649648 41.62752893 0 0 0 0 0 0 0 0 STD5.60
2026-03-19 08:08:29 18 17.40 0.090000 41.649648 41.62752893 0 0 0 0 0 0 0 0 STD5.60
2026-03-19 08:03:27 16 18.00 0.080000 41.649648 41.62752893 0 0 0 0 0 0 0 0 STD5.60
2026-03-19 07:58:25 18 20.50 0.090000 41.649648 41.62752893 0 0 0 0 0 0 0 0 STD5.60
2026-03-19 07:53:23 16 21.00 0.080000 41.649648 41.62752893 0 0 0 0 0 0 0 0 STD5.60
2026-03-19 07:48:22 17 18.90 0.085000 41.649648 41.62752893 0 0 0 0 0 0 0 0 STD5.60
2026-03-19 07:43:20 20 18.80 0.100000 41.649648 41.62752893 0 0 0 0 0 0 0 0 STD5.60
2026-03-19 07:38:17 19 17.90 0.095000 41.649648 41.62752893 0 0 0 0 0 0 0 0 STD5.60
2026-03-19 07:33:15 19 19.10 0.095000 41.649648 41.62752893 0 0 0 0 0 0 0 0 STD5.60
2026-03-19 07:27:59 13 20.50 0.065000 41.649648 41.62752893 0 0 0 0 0 0 0 0 STD5.60
2026-03-19 07:22:57 18 17.90 0.090000 41.649648 41.62752893 0 0 0 0 0 0 0 0 STD5.60
2026-03-19 07:17:55 16 16.20 0.080000 41.649648 41.62752893 0 0 0 0 0 0 0 0 STD5.60
2026-03-19 07:12:53 16 17.10 0.080000 41.649648 41.62752893 0 0 0 0 0 0 0 0 STD5.60
2026-03-19 07:07:51 19 17.60 0.095000 41.649648 41.62752893 0 0 0 0 0 0 0 0 STD5.60
2026-03-19 07:02:49 23 16.40 0.115000 41.649648 41.62752893 0 0 0 0 0 0 0 0 STD5.60
2026-03-19 06:57:47 19 16.90 0.095000 41.649648 41.62752893 0 0 0 0 0 0 0 0 STD5.60
2026-03-19 06:52:45 10 18.90 0.050000 41.649648 41.62752893 0 0 0 0 0 0 0 0 STD5.60
2026-03-19 06:47:44 18 19.70 0.090000 41.649648 41.62752893 0 0 0 0 0 0 0 0 STD5.60
2026-03-19 06:42:42 17 19.40 0.085000 41.649648 41.62752893 0 0 0 0 0 0 0 0 STD5.60
2026-03-19 06:37:40 23 18.70 0.115000 41.649648 41.62752893 0 0 0 0 0 0 0 0 STD5.60
2026-03-19 06:32:38 15 20.10 0.075000 41.649648 41.62752893 0 0 0 0 0 0 0 0 STD5.60
2026-03-19 06:27:34 22 19.00 0.110000 41.649648 41.62752893 0 0 0 0 0 0 0 0 STD5.60
2026-03-19 06:22:32 23 16.00 0.115000 41.649648 41.62752893 0 0 0 0 0 0 0 0 STD5.60
2026-03-19 06:17:30 17 16.80 0.085000 41.649648 41.62752893 0 0 0 0 0 0 0 0 STD5.60
2026-03-19 06:12:28 19 19.60 0.095000 41.649648 41.62752893 0 0 0 0 0 0 0 0 STD5.60
2026-03-19 06:07:26 23 19.60 0.115000 41.649648 41.62752893 0 0 0 0 0 0 0 0 STD5.60
2026-03-19 06:02:24 22 18.50 0.110000 41.649648 41.62752893 0 0 0 0 0 0 0 0 STD5.60
2026-03-19 05:57:22 16 17.50 0.080000 41.649648 41.62752893 0 0 0 0 0 0 0 0 STD5.60
2026-03-19 05:52:20 19 16.60 0.095000 41.649648 41.62752893 0 0 0 0 0 0 0 0 STD5.60
2026-03-19 05:47:18 12 18.40 0.060000 41.649648 41.62752893 0 0 0 0 0 0 0 0 STD5.60
2026-03-19 05:42:16 25 18.80 0.125000 41.649648 41.62752893 0 0 0 0 0 0 0 0 STD5.60
2026-03-19 05:37:14 20 16.50 0.100000 41.649648 41.62752893 0 0 0 0 0 0 0 0 STD5.60
2026-03-19 05:32:13 18 18.30 0.090000 41.649648 41.62752893 0 0 0 0 0 0 0 0 STD5.60
2026-03-19 05:27:09 16 20.80 0.080000 41.649648 41.62752893 0 0 0 0 0 0 0 0 STD5.60
2026-03-19 05:22:07 13 19.10 0.065000 41.649648 41.62752893 0 0 0 0 0 0 0 0 STD5.60
2026-03-19 05:17:05 15 17.90 0.075000 41.649648 41.62752893 0 0 0 0 0 0 0 0 STD5.60
2026-03-19 05:12:03 24 18.80 0.120000 41.649648 41.62752893 0 0 0 0 0 0 0 0 STD5.60
2026-03-19 05:07:01 18 16.90 0.090000 41.649648 41.62752893 0 0 0 0 0 0 0 0 STD5.60
2026-03-19 05:01:58 17 15.10 0.085000 41.649648 41.62752893 0 0 0 0 0 0 0 0 STD5.60
2026-03-19 04:56:56 14 16.80 0.070000 41.649648 41.62752893 0 0 0 0 0 0 0 0 STD5.60
2026-03-19 04:51:54 16 16.90 0.080000 41.649648 41.62752893 0 0 0 0 0 0 0 0 STD5.60
2026-03-19 04:46:52 20 15.40 0.100000 41.649648 41.62752893 0 0 0 0 0 0 0 0 STD5.60
2026-03-19 04:41:51 17 17.80 0.085000 41.649648 41.62752893 0 0 0 0 0 0 0 0 STD5.60
2026-03-19 04:36:49 22 19.40 0.110000 41.649648 41.62752893 0 0 0 0 0 0 0 0 STD5.60
2026-03-19 04:31:49 24 19.10 0.120000 41.649648 41.62752893 0 0 0 0 0 0 0 0 STD5.60
2026-03-19 04:26:43 15 19.40 0.075000 41.649648 41.62752893 0 0 0 0 0 0 0 0 STD5.60
2026-03-19 04:21:41 19 19.00 0.095000 41.649648 41.62752893 0 0 0 0 0 0 0 0 STD5.60
2026-03-19 04:16:39 30 18.70 0.150000 41.649648 41.62752893 0 0 0 0 0 0 0 0 STD5.60
2026-03-19 04:11:37 22 19.40 0.110000 41.649648 41.62752893 0 0 0 0 0 0 0 0 STD5.60
2026-03-19 04:06:35 20 20.10 0.100000 41.649648 41.62752893 0 0 0 0 0 0 0 0 STD5.60
2026-03-19 04:01:33 11 18.80 0.055000 41.649648 41.62752893 0 0 0 0 0 0 0 0 STD5.60
2026-03-19 03:56:31 15 18.40 0.075000 41.649648 41.62752893 0 0 0 0 0 0 0 0 STD5.60
2026-03-19 03:51:28 23 19.00 0.115000 41.649648 41.62752893 0 0 0 0 0 0 0 0 STD5.60
2026-03-19 03:46:26 25 18.40 0.125000 41.649648 41.62752893 0 0 0 0 0 0 0 0 STD5.60
2026-03-19 03:41:24 21 17.20 0.105000 41.649648 41.62752893 0 0 0 0 0 0 0 0 STD5.60
2026-03-19 03:36:22 17 18.80 0.085000 41.649648 41.62752893 0 0 0 0 0 0 0 0 STD5.60
2026-03-19 03:31:20 18 18.40 0.090000 41.649648 41.62752893 0 0 0 0 0 0 0 0 STD5.60
2026-03-19 03:26:15 12 16.90 0.060000 41.649648 41.62752893 0 0 0 0 0 0 0 0 STD5.60
2026-03-19 03:21:20 12 16.20 0.060000 41.649648 41.62752893 0 0 0 0 0 0 0 0 STD5.60
2026-03-19 03:16:11 15 16.40 0.075000 41.649648 41.62752893 0 0 0 0 0 0 0 0 STD5.60
2026-03-19 03:11:12 15 16.70 0.075000 41.649648 41.62752893 0 0 0 0 0 0 0 0 STD5.60
2026-03-19 03:06:07 21 16.90 0.105000 41.649648 41.62752893 0 0 0 0 0 0 0 0 STD5.60
2026-03-19 03:01:05 15 19.00 0.075000 41.649648 41.62752893 0 0 0 0 0 0 0 0 STD5.60
2026-03-19 02:56:05 18 19.00 0.090000 41.649648 41.62752893 0 0 0 0 0 0 0 0 STD5.60
2026-03-19 02:51:02 22 15.30 0.110000 41.649648 41.62752893 0 0 0 0 0 0 0 0 STD5.60
2026-03-19 02:45:59 13 16.00 0.065000 41.649648 41.62752893 0 0 0 0 0 0 0 0 STD5.60
2026-03-19 02:40:58 18 18.60 0.090000 41.649648 41.62752893 0 0 0 0 0 0 0 0 STD5.60
2026-03-19 02:35:56 20 18.50 0.100000 41.649648 41.62752893 0 0 0 0 0 0 0 0 STD5.60
2026-03-19 02:30:54 16 18.80 0.080000 41.649648 41.62752893 0 0 0 0 0 0 0 0 STD5.60
2026-03-19 02:25:49 21 18.90 0.105000 41.649648 41.62752893 0 0 0 0 0 0 0 0 STD5.60
2026-03-19 02:20:47 27 19.10 0.135000 41.649648 41.62752893 0 0 0 0 0 0 0 0 STD5.60
2026-03-19 02:15:45 22 18.00 0.110000 41.649648 41.62752893 0 0 0 0 0 0 0 0 STD5.60
2026-03-19 02:10:43 7 17.80 0.035000 41.649648 41.62752893 0 0 0 0 0 0 0 0 STD5.60
2026-03-19 02:05:41 19 16.30 0.095000 41.649648 41.62752893 0 0 0 0 0 0 0 0 STD5.60
2026-03-19 02:00:39 15 16.40 0.075000 41.649648 41.62752893 0 0 0 0 0 0 0 0 STD5.60
2026-03-19 01:55:37 20 18.10 0.100000 41.649648 41.62752893 0 0 0 0 0 0 0 0 STD5.60
2026-03-19 01:50:35 12 18.30 0.060000 41.649648 41.62752893 0 0 0 0 0 0 0 0 STD5.60
2026-03-19 01:45:33 19 17.00 0.095000 41.649648 41.62752893 0 0 0 0 0 0 0 0 STD5.60
2026-03-19 01:40:31 11 16.30 0.055000 41.649648 41.62752893 0 0 0 0 0 0 0 0 STD5.60
2026-03-19 01:35:29 21 17.90 0.105000 41.649648 41.62752893 0 0 0 0 0 0 0 0 STD5.60
2026-03-19 01:30:27 16 19.30 0.080000 41.649648 41.62752893 0 0 0 0 0 0 0 0 STD5.60
2026-03-19 01:25:21 21 19.90 0.105000 41.649648 41.62752893 0 0 0 0 0 0 0 0 STD5.60
2026-03-19 01:20:19 15 17.30 0.075000 41.649648 41.62752893 0 0 0 0 0 0 0 0 STD5.60
2026-03-19 01:15:17 13 17.40 0.065000 41.649648 41.62752893 0 0 0 0 0 0 0 0 STD5.60
2026-03-19 01:10:15 23 20.50 0.115000 41.649648 41.62752893 0 0 0 0 0 0 0 0 STD5.60
2026-03-19 01:05:13 25 22.00 0.125000 41.649648 41.62752893 0 0 0 0 0 0 0 0 STD5.60
2026-03-19 01:00:12 30 19.20 0.150000 41.649648 41.62752893 0 0 0 0 0 0 0 0 STD5.60
2026-03-19 00:55:09 17 15.10 0.085000 41.649648 41.62752893 0 0 0 0 0 0 0 0 STD5.60
2026-03-19 00:50:07 19 14.00 0.095000 41.649648 41.62752893 0 0 0 0 0 0 0 0 STD5.60
2026-03-19 00:45:07 11 16.20 0.055000 41.649648 41.62752893 0 0 0 0 0 0 0 0 STD5.60
2026-03-19 00:40:04 16 18.80 0.080000 41.649648 41.62752893 0 0 0 0 0 0 0 0 STD5.60
2026-03-19 00:35:01 27 18.30 0.135000 41.649648 41.62752893 0 0 0 0 0 0 0 0 STD5.60
2026-03-19 00:29:59 16 17.40 0.080000 41.649648 41.62752893 0 0 0 0 0 0 0 0 STD5.60
2026-03-19 00:24:56 20 16.60 0.100000 41.649648 41.62752893 0 0 0 0 0 0 0 0 STD5.60
2026-03-19 00:19:53 15 17.00 0.075000 41.649648 41.62752893 0 0 0 0 0 0 0 0 STD5.60
2026-03-19 00:14:51 14 18.50 0.070000 41.649648 41.62752893 0 0 0 0 0 0 0 0 STD5.60
2026-03-19 00:09:54 17 18.40 0.085000 41.649648 41.62752893 0 0 0 0 0 0 0 0 STD5.60
2026-03-19 00:04:46 19 18.40 0.095000 41.649648 41.62752893 0 0 0 0 0 0 0 0 STD5.60
2026-03-18 23:59:44 15 18.70 0.075000 41.649648 41.62752893 0 0 0 0 0 0 0 0 STD5.60
2026-03-18 23:54:42 19 17.90 0.095000 41.649648 41.62752893 0 0 0 0 0 0 0 0 STD5.60
2026-03-18 23:49:40 17 17.20 0.085000 41.649648 41.62752893 0 0 0 0 0 0 0 0 STD5.60
2026-03-18 23:44:38 15 16.90 0.075000 41.649648 41.62752893 0 0 0 0 0 0 0 0 STD5.60
2026-03-18 23:39:36 22 20.40 0.110000 41.649648 41.62752893 0 0 0 0 0 0 0 0 STD5.60
2026-03-18 23:34:34 31 20.10 0.155000 41.649648 41.62752893 0 0 0 0 0 0 0 0 STD5.60
2026-03-18 23:29:33 18 17.30 0.090000 41.649648 41.62752893 0 0 0 0 0 0 0 0 STD5.60
2026-03-18 23:24:28 15 17.90 0.075000 41.649648 41.62752893 0 0 0 0 0 0 0 0 STD5.60
2026-03-18 23:19:27 28 17.40 0.140000 41.649648 41.62752893 0 0 0 0 0 0 0 0 STD5.60
2026-03-18 23:14:25 20 15.90 0.100000 41.649648 41.62752893 0 0 0 0 0 0 0 0 STD5.60
2026-03-18 23:09:22 16 18.00 0.080000 41.649648 41.62752893 0 0 0 0 0 0 0 0 STD5.60
2026-03-18 23:04:21 18 18.40 0.090000 41.649648 41.62752893 0 0 0 0 0 0 0 0 STD5.60
2026-03-18 22:59:19 10 16.30 0.050000 41.649648 41.62752893 0 0 0 0 0 0 0 0 STD5.60
2026-03-18 22:54:17 14 18.70 0.070000 41.649648 41.62752893 0 0 0 0 0 0 0 0 STD5.60
2026-03-18 22:49:15 27 18.30 0.135000 41.649648 41.62752893 0 0 0 0 0 0 0 0 STD5.60
2026-03-18 22:44:13 15 17.90 0.075000 41.649648 41.62752893 0 0 0 0 0 0 0 0 STD5.60
2026-03-18 22:39:11 19 17.30 0.095000 41.649648 41.62752893 0 0 0 0 0 0 0 0 STD5.60
2026-03-18 22:34:09 14 16.90 0.070000 41.649648 41.62752893 0 0 0 0 0 0 0 0 STD5.60
2026-03-18 22:29:07 22 18.40 0.110000 41.649648 41.62752893 0 0 0 0 0 0 0 0 STD5.60
2026-03-18 22:24:03 21 19.10 0.105000 41.649648 41.62752893 0 0 0 0 0 0 0 0 STD5.60
2026-03-18 22:19:01 23 19.10 0.115000 41.649648 41.62752893 0 0 0 0 0 0 0 0 STD5.60
2026-03-18 22:13:59 33 19.80 0.165000 41.649648 41.62752893 0 0 0 0 0 0 0 0 STD5.60
2026-03-18 22:08:57 25 20.10 0.125000 41.649648 41.62752893 0 0 0 0 0 0 0 0 STD5.60
2026-03-18 22:03:55 25 16.30 0.125000 41.649648 41.62752893 0 0 0 0 0 0 0 0 STD5.60
2026-03-18 21:58:54 14 13.80 0.070000 41.649648 41.62752893 0 0 0 0 0 0 0 0 STD5.60
2026-03-18 21:53:51 13 17.30 0.065000 41.649648 41.62752893 0 0 0 0 0 0 0 0 STD5.60
2026-03-18 21:48:50 23 17.80 0.115000 41.649648 41.62752893 0 0 0 0 0 0 0 0 STD5.60
2026-03-18 21:43:48 21 16.50 0.105000 41.649648 41.62752893 0 0 0 0 0 0 0 0 STD5.60
2026-03-18 21:38:46 22 18.00 0.110000 41.649648 41.62752893 0 0 0 0 0 0 0 0 STD5.60
2026-03-18 21:33:44 21 19.10 0.105000 41.649648 41.62752893 0 0 0 0 0 0 0 0 STD5.60
2026-03-18 21:28:43 18 20.90 0.090000 41.649648 41.62752893 0 0 0 0 0 0 0 0 STD5.60
2026-03-18 21:23:37 21 20.20 0.105000 41.649648 41.62752893 0 0 0 0 0 0 0 0 STD5.60
2026-03-18 21:18:36 16 17.40 0.080000 41.649648 41.62752893 0 0 0 0 0 0 0 0 STD5.60
2026-03-18 21:13:34 18 16.30 0.090000 41.649648 41.62752893 0 0 0 0 0 0 0 0 STD5.60
2026-03-18 21:08:31 15 16.50 0.075000 41.649648 41.62752893 0 0 0 0 0 0 0 0 STD5.60
2026-03-18 21:03:29 19 16.30 0.095000 41.649648 41.62752893 0 0 0 0 0 0 0 0 STD5.60
2026-03-18 20:58:27 16 17.50 0.080000 41.649648 41.62752893 0 0 0 0 0 0 0 0 STD5.60
2026-03-18 20:53:25 22 18.20 0.110000 41.649648 41.62752893 0 0 0 0 0 0 0 0 STD5.60
2026-03-18 20:48:23 20 18.20 0.100000 41.649648 41.62752893 0 0 0 0 0 0 0 0 STD5.60
2026-03-18 20:43:21 28 19.40 0.140000 41.649648 41.62752893 0 0 0 0 0 0 0 0 STD5.60
2026-03-18 20:38:19 19 19.80 0.095000 41.649648 41.62752893 0 0 0 0 0 0 0 0 STD5.60
2026-03-18 20:33:17 13 18.70 0.065000 41.649648 41.62752893 0 0 0 0 0 0 0 0 STD5.60
2026-03-18 20:28:16 19 17.30 0.095000 41.649648 41.62752893 0 0 0 0 0 0 0 0 STD5.60
2026-03-18 20:23:12 17 17.10 0.085000 41.649648 41.62752893 0 0 0 0 0 0 0 0 STD5.60
2026-03-18 20:18:09 14 17.30 0.070000 41.649648 41.62752893 0 0 0 0 0 0 0 0 STD5.60
2026-03-18 20:13:08 22 18.90 0.110000 41.649648 41.62752893 0 0 0 0 0 0 0 0 STD5.60
2026-03-18 20:08:06 22 19.60 0.110000 41.649648 41.62752893 0 0 0 0 0 0 0 0 STD5.60
2026-03-18 20:03:04 14 17.60 0.070000 41.649648 41.62752893 0 0 0 0 0 0 0 0 STD5.60
2026-03-18 19:58:03 13 16.00 0.065000 41.649648 41.62752893 0 0 0 0 0 0 0 0 STD5.60
2026-03-18 19:53:00 15 16.40 0.075000 41.649648 41.62752893 0 0 0 0 0 0 0 0 STD5.60
2026-03-18 19:47:58 12 17.10 0.060000 41.649648 41.62752893 0 0 0 0 0 0 0 0 STD5.60
2026-03-18 19:42:56 14 17.60 0.070000 41.649648 41.62752893 0 0 0 0 0 0 0 0 STD5.60
2026-03-18 19:37:54 17 18.70 0.085000 41.649648 41.62752893 0 0 0 0 0 0 0 0 STD5.60
2026-03-18 19:32:52 21 16.90 0.105000 41.649648 41.62752893 0 0 0 0 0 0 0 0 STD5.60
2026-03-18 19:27:50 22 15.60 0.110000 41.649648 41.62752893 0 0 0 0 0 0 0 0 STD5.60
2026-03-18 19:22:46 10 17.20 0.050000 41.649648 41.62752893 0 0 0 0 0 0 0 0 STD5.60
2026-03-18 19:17:44 24 18.50 0.120000 41.649648 41.62752893 0 0 0 0 0 0 0 0 STD5.60
2026-03-18 19:12:42 23 18.30 0.115000 41.649648 41.62752893 0 0 0 0 0 0 0 0 STD5.60
2026-03-18 19:07:40 17 19.80 0.085000 41.649648 41.62752893 0 0 0 0 0 0 0 0 STD5.60
2026-03-18 19:02:38 23 18.90 0.115000 41.649648 41.62752893 0 0 0 0 0 0 0 0 STD5.60
2026-03-18 18:57:35 19 18.70 0.095000 41.649648 41.62752893 0 0 0 0 0 0 0 0 STD5.60
2026-03-18 18:52:34 21 18.90 0.105000 41.649648 41.62752893 0 0 0 0 0 0 0 0 STD5.60
2026-03-18 18:47:31 12 16.30 0.060000 41.649648 41.62752893 0 0 0 0 0 0 0 0 STD5.60
2026-03-18 18:42:29 12 17.70 0.060000 41.649648 41.62752893 0 0 0 0 0 0 0 0 STD5.60
2026-03-18 18:37:28 19 17.40 0.095000 41.649648 41.62752893 0 0 0 0 0 0 0 0 STD5.60
2026-03-18 18:32:25 8 16.70 0.040000 41.649648 41.62752893 0 0 0 0 0 0 0 0 STD5.60
2026-03-18 18:27:27 19 16.40 0.095000 41.649648 41.62752893 0 0 0 0 0 0 0 0 STD5.60
2026-03-18 18:22:19 14 15.70 0.070000 41.649648 41.62752893 0 0 0 0 0 0 0 0 STD5.60
2026-03-18 18:17:18 14 15.80 0.070000 41.649648 41.62752893 0 0 0 0 0 0 0 0 STD5.60
2026-03-18 18:12:15 15 17.70 0.075000 41.649648 41.62752893 0 0 0 0 0 0 0 0 STD5.60
2026-03-18 18:07:14 20 19.70 0.100000 41.649648 41.62752893 0 0 0 0 0 0 0 0 STD5.60
2026-03-18 18:02:11 20 19.40 0.100000 41.649648 41.62752893 0 0 0 0 0 0 0 0 STD5.60
2026-03-18 17:57:10 18 18.80 0.090000 41.649648 41.62752893 0 0 0 0 0 0 0 0 STD5.60
2026-03-18 17:52:07 22 17.60 0.110000 41.649648 41.62752893 0 0 0 0 0 0 0 0 STD5.60
2026-03-18 17:47:05 12 17.10 0.060000 41.649648 41.62752893 0 0 0 0 0 0 0 0 STD5.60
2026-03-18 17:42:03 12 17.30 0.060000 41.649648 41.62752893 0 0 0 0 0 0 0 0 STD5.60
2026-03-18 17:37:02 14 15.80 0.070000 41.649648 41.62752893 0 0 0 0 0 0 0 0 STD5.60
2026-03-18 17:31:59 17 16.70 0.085000 41.649648 41.62752893 0 0 0 0 0 0 0 0 STD5.60
2026-03-18 17:26:57 15 18.80 0.075000 41.649648 41.62752893 0 0 0 0 0 0 0 0 STD5.60
2026-03-18 17:21:52 21 17.80 0.105000 41.649648 41.62752893 0 0 0 0 0 0 0 0 STD5.60
2026-03-18 17:16:50 18 16.80 0.090000 41.649648 41.62752893 0 0 0 0 0 0 0 0 STD5.60
2026-03-18 17:11:48 20 16.70 0.100000 41.649648 41.62752893 0 0 0 0 0 0 0 0 STD5.60
2026-03-18 17:06:46 15 17.10 0.075000 41.649648 41.62752893 0 0 0 0 0 0 0 0 STD5.60
2026-03-18 17:01:44 19 18.60 0.095000 41.649648 41.62752893 0 0 0 0 0 0 0 0 STD5.60
2026-03-18 16:56:42 21 20.40 0.105000 41.649648 41.62752893 0 0 0 0 0 0 0 0 STD5.60
2026-03-18 16:51:40 14 18.90 0.070000 41.649648 41.62752893 0 0 0 0 0 0 0 0 STD5.60
2026-03-18 16:46:38 22 17.50 0.110000 41.649648 41.62752893 0 0 0 0 0 0 0 0 STD5.60
2026-03-18 16:41:36 19 18.00 0.095000 41.649648 41.62752893 0 0 0 0 0 0 0 0 STD5.60
2026-03-18 16:36:34 23 20.50 0.115000 41.649648 41.62752893 0 0 0 0 0 0 0 0 STD5.60
2026-03-18 16:31:32 24 21.70 0.120000 41.649648 41.62752893 0 0 0 0 0 0 0 0 STD5.60
2026-03-18 16:26:30 16 18.90 0.080000 41.649648 41.62752893 0 0 0 0 0 0 0 0 STD5.60
2026-03-18 16:21:25 20 17.10 0.100000 41.649648 41.62752893 0 0 0 0 0 0 0 0 STD5.60
2026-03-18 16:16:23 21 17.20 0.105000 41.649648 41.62752893 0 0 0 0 0 0 0 0 STD5.60
2026-03-18 16:11:21 18 19.70 0.090000 41.649648 41.62752893 0 0 0 0 0 0 0 0 STD5.60
2026-03-18 16:06:21 26 19.60 0.130000 41.649648 41.62752893 0 0 0 0 0 0 0 0 STD5.60
2026-03-18 16:01:16 14 16.80 0.070000 41.649648 41.62752893 0 0 0 0 0 0 0 0 STD5.60
2026-03-18 15:56:14 21 17.80 0.105000 41.649648 41.62752893 0 0 0 0 0 0 0 0 STD5.60
2026-03-18 15:51:12 16 18.70 0.080000 41.649648 41.62752893 0 0 0 0 0 0 0 0 STD5.60
2026-03-18 15:46:10 18 18.70 0.090000 41.649648 41.62752893 0 0 0 0 0 0 0 0 STD5.60
2026-03-18 15:41:08 19 18.40 0.095000 41.649648 41.62752893 0 0 0 0 0 0 0 0 STD5.60
2026-03-18 15:36:07 17 17.10 0.085000 41.649648 41.62752893 0 0 0 0 0 0 0 0 STD5.60
2026-03-18 15:31:05 21 18.90 0.105000 41.649648 41.62752893 0 0 0 0 0 0 0 0 STD5.60
2026-03-18 15:26:03 24 19.60 0.120000 41.649648 41.62752893 0 0 0 0 0 0 0 0 STD5.60
2026-03-18 15:20:58 14 18.00 0.070000 41.649648 41.62752893 0 0 0 0 0 0 0 0 STD5.60
2026-03-18 15:15:56 18 19.70 0.090000 41.649648 41.62752893 0 0 0 0 0 0 0 0 STD5.60
2026-03-18 15:10:54 10 20.10 0.050000 41.649648 41.62752893 0 0 0 0 0 0 0 0 STD5.60
2026-03-18 15:05:51 20 20.90 0.100000 41.649648 41.62752893 0 0 0 0 0 0 0 0 STD5.60
2026-03-18 15:00:50 17 19.10 0.085000 41.649648 41.62752893 0 0 0 0 0 0 0 0 STD5.60
2026-03-18 14:55:48 13 17.00 0.065000 41.649648 41.62752893 0 0 0 0 0 0 0 0 STD5.60
2026-03-18 14:50:46 22 18.30 0.110000 41.649648 41.62752893 0 0 0 0 0 0 0 0 STD5.60
2026-03-18 14:45:44 12 18.70 0.060000 41.649648 41.62752893 0 0 0 0 0 0 0 0 STD5.60
2026-03-18 14:40:41 17 18.30 0.085000 41.649648 41.62752893 0 0 0 0 0 0 0 0 STD5.60
2026-03-18 14:35:40 19 17.20 0.095000 41.649648 41.62752893 0 0 0 0 0 0 0 0 STD5.60
2026-03-18 14:30:38 14 16.90 0.070000 41.649648 41.62752893 0 0 0 0 0 0 0 0 STD5.60
2026-03-18 14:25:36 12 15.20 0.060000 41.649648 41.62752893 0 0 0 0 0 0 0 0 STD5.60
2026-03-18 14:20:32 12 15.90 0.060000 41.649648 41.62752893 0 0 0 0 0 0 0 0 STD5.60
2026-03-18 14:15:29 16 17.20 0.080000 41.649648 41.62752893 0 0 0 0 0 0 0 0 STD5.60
2026-03-18 14:10:28 15 17.50 0.075000 41.649648 41.62752893 0 0 0 0 0 0 0 0 STD5.60
2026-03-18 14:05:26 18 17.60 0.090000 41.649648 41.62752893 0 0 0 0 0 0 0 0 STD5.60
2026-03-18 14:00:24 19 16.60 0.095000 41.649648 41.62752893 0 0 0 0 0 0 0 0 STD5.60
2026-03-18 13:55:24 16 18.50 0.080000 41.649648 41.62752893 0 0 0 0 0 0 0 0 STD5.60
2026-03-18 13:50:20 17 19.70 0.085000 41.649648 41.62752893 0 0 0 0 0 0 0 0 STD5.60
2026-03-18 13:45:18 23 19.70 0.115000 41.649648 41.62752893 0 0 0 0 0 0 0 0 STD5.60
2026-03-18 13:40:16 28 19.60 0.140000 41.649648 41.62752893 0 0 0 0 0 0 0 0 STD5.60
2026-03-18 13:35:14 22 17.30 0.110000 41.649648 41.62752893 0 0 0 0 0 0 0 0 STD5.60
2026-03-18 13:30:13 18 17.10 0.090000 41.649648 41.62752893 0 0 0 0 0 0 0 0 STD5.60
2026-03-18 13:25:10 26 17.80 0.130000 41.649648 41.62752893 0 0 0 0 0 0 0 0 STD5.60
2026-03-18 13:20:07 20 16.70 0.100000 41.649648 41.62752893 0 0 0 0 0 0 0 0 STD5.60
2026-03-18 13:15:04 21 18.40 0.105000 41.649648 41.62752893 0 0 0 0 0 0 0 0 STD5.60
2026-03-18 13:10:03 23 20.40 0.115000 41.649648 41.62752893 0 0 0 0 0 0 0 0 STD5.60
2026-03-18 13:05:00 18 18.50 0.090000 41.649648 41.62752893 0 0 0 0 0 0 0 0 STD5.60
2026-03-18 12:59:58 27 18.00 0.135000 41.649648 41.62752893 0 0 0 0 0 0 0 0 STD5.60
2026-03-18 12:54:57 19 18.30 0.095000 41.649648 41.62752893 0 0 0 0 0 0 0 0 STD5.60
2026-03-18 12:49:54 17 16.70 0.085000 41.649648 41.62752893 0 0 0 0 0 0 0 0 STD5.60
2026-03-18 12:44:52 16 16.80 0.080000 41.649648 41.62752893 0 0 0 0 0 0 0 0 STD5.60
2026-03-18 12:39:50 18 18.10 0.090000 41.649648 41.62752893 0 0 0 0 0 0 0 0 STD5.60
2026-03-18 12:34:47 17 18.10 0.085000 41.649648 41.62752893 0 0 0 0 0 0 0 0 STD5.60
2026-03-18 12:29:45 22 17.90 0.110000 41.649648 41.62752893 0 0 0 0 0 0 0 0 STD5.60
2026-03-18 12:24:44 17 18.40 0.085000 41.649648 41.62752893 0 0 0 0 0 0 0 0 STD5.60
2026-03-18 12:19:40 19 16.50 0.095000 41.649648 41.62752893 0 0 0 0 0 0 0 0 STD5.60
2026-03-18 12:14:38 18 15.40 0.090000 41.649648 41.62752893 0 0 0 0 0 0 0 0 STD5.60
2026-03-18 12:09:36 15 17.10 0.075000 41.649648 41.62752893 0 0 0 0 0 0 0 0 STD5.60
2026-03-18 12:04:35 19 17.50 0.095000 41.649648 41.62752893 0 0 0 0 0 0 0 0 STD5.60
2026-03-18 11:59:32 16 18.10 0.080000 41.649648 41.62752893 0 0 0 0 0 0 0 0 STD5.60
2026-03-18 11:54:30 25 19.50 0.125000 41.649648 41.62752893 0 0 0 0 0 0 0 0 STD5.60
2026-03-18 11:49:27 27 20.10 0.135000 41.649648 41.62752893 0 0 0 0 0 0 0 0 STD5.60
2026-03-18 11:44:25 17 19.40 0.085000 41.649648 41.62752893 0 0 0 0 0 0 0 0 STD5.60
2026-03-18 11:39:23 18 16.40 0.090000 41.649648 41.62752893 0 0 0 0 0 0 0 0 STD5.60
2026-03-18 11:34:21 10 15.80 0.050000 41.649648 41.62752893 0 0 0 0 0 0 0 0 STD5.60
2026-03-18 11:29:19 16 17.50 0.080000 41.649648 41.62752893 0 0 0 0 0 0 0 0 STD5.60
2026-03-18 11:24:15 18 18.80 0.090000 41.649648 41.62752893 0 0 0 0 0 0 0 0 STD5.60
2026-03-18 11:19:12 22 19.80 0.110000 41.649648 41.62752893 0 0 0 0 0 0 0 0 STD5.60
2026-03-18 11:14:10 20 18.90 0.100000 41.649648 41.62752893 0 0 0 0 0 0 0 0 STD5.60
2026-03-18 11:09:10 20 19.20 0.100000 41.649648 41.62752893 0 0 0 0 0 0 0 0 STD5.60
2026-03-18 11:04:06 18 19.30 0.090000 41.649648 41.62752893 0 0 0 0 0 0 0 0 STD5.60
2026-03-18 10:59:04 16 16.90 0.080000 41.649648 41.62752893 0 0 0 0 0 0 0 0 STD5.60
2026-03-18 10:54:05 20 16.80 0.100000 41.649648 41.62752893 0 0 0 0 0 0 0 0 STD5.60
2026-03-18 10:49:02 23 19.00 0.115000 41.649648 41.62752893 0 0 0 0 0 0 0 0 STD5.60
2026-03-18 10:43:59 25 19.60 0.125000 41.649648 41.62752893 0 0 0 0 0 0 0 0 STD5.60
2026-03-18 10:38:57 18 16.90 0.090000 41.649648 41.62752893 0 0 0 0 0 0 0 0 STD5.60
2026-03-18 10:33:55 17 15.10 0.085000 41.649648 41.62752893 0 0 0 0 0 0 0 0 STD5.60
2026-03-18 10:28:53 15 18.50 0.075000 41.649648 41.62752893 0 0 0 0 0 0 0 0 STD5.60
2026-03-18 10:23:50 22 19.30 0.110000 41.649648 41.62752893 0 0 0 0 0 0 0 0 STD5.60
2026-03-18 10:18:48 21 16.60 0.105000 41.649648 41.62752893 0 0 0 0 0 0 0 0 STD5.60
2026-03-18 10:13:46 14 17.30 0.070000 41.649648 41.62752893 0 0 0 0 0 0 0 0 STD5.60
2026-03-18 10:08:44 17 18.50 0.085000 41.649648 41.62752893 0 0 0 0 0 0 0 0 STD5.60
2026-03-18 10:03:42 21 17.80 0.105000 41.649648 41.62752893 0 0 0 0 0 0 0 0 STD5.60
2026-03-18 09:58:40 20 17.10 0.100000 41.649648 41.62752893 0 0 0 0 0 0 0 0 STD5.60
2026-03-18 09:53:39 16 16.50 0.080000 41.649648 41.62752893 0 0 0 0 0 0 0 0 STD5.60
2026-03-18 09:48:36 25 16.60 0.125000 41.649648 41.62752893 0 0 0 0 0 0 0 0 STD5.60
2026-03-18 09:43:35 10 16.90 0.050000 41.649648 41.62752893 0 0 0 0 0 0 0 0 STD5.60
2026-03-18 09:38:33 19 17.20 0.095000 41.649648 41.62752893 0 0 0 0 0 0 0 0 STD5.60
2026-03-18 09:33:31 14 17.50 0.070000 41.649648 41.62752893 0 0 0 0 0 0 0 0 STD5.60
2026-03-18 09:28:29 12 8.60 0.060000 41.649648 41.62752893 0 0 0 0 0 0 0 0 STD5.60
2026-03-18 09:23:25 22 17.10 0.110000 41.649648 41.62752893 0 0 0 0 0 0 0 0 STD5.60
2026-03-18 09:18:23 23 17.60 0.115000 41.649648 41.62752893 0 0 0 0 0 0 0 0 STD5.60
2026-03-18 09:13:22 18 17.90 0.090000 41.649648 41.62752893 0 0 0 0 0 0 0 0 STD5.60
2026-03-18 09:08:19 13 20.70 0.065000 41.649648 41.62752893 0 0 0 0 0 0 0 0 STD5.60
2026-03-18 09:03:17 14 20.40 0.070000 41.649648 41.62752893 0 0 0 0 0 0 0 0 STD5.60
2026-03-18 08:58:15 22 18.50 0.110000 41.649648 41.62752893 0 0 0 0 0 0 0 0 STD5.60
2026-03-18 08:53:14 20 17.90 0.100000 41.649648 41.62752893 0 0 0 0 0 0 0 0 STD5.60
2026-03-18 08:43:10 15 16.70 0.075000 41.649648 41.62752893 0 0 0 0 0 0 0 0 STD5.60
2026-03-18 08:38:08 13 18.00 0.065000 41.649648 41.62752893 0 0 0 0 0 0 0 0 STD5.60
2026-03-18 08:33:10 14 19.30 0.070000 41.649648 41.62752893 0 0 0 0 0 0 0 0 STD5.60
2026-03-18 08:28:05 20 18.70 0.100000 41.649648 41.62752893 0 0 0 0 0 0 0 0 STD5.60
2026-03-18 08:23:00 15 17.70 0.075000 41.649648 41.62752893 0 0 0 0 0 0 0 0 STD5.60
2026-03-18 08:17:58 17 18.40 0.085000 41.649648 41.62752893 0 0 0 0 0 0 0 0 STD5.60
2026-03-18 08:12:57 13 18.80 0.065000 41.649648 41.62752893 0 0 0 0 0 0 0 0 STD5.60
2026-03-18 08:07:55 19 18.10 0.095000 41.649648 41.62752893 0 0 0 0 0 0 0 0 STD5.60
2026-03-18 08:02:54 18 18.30 0.090000 41.649648 41.62752893 0 0 0 0 0 0 0 0 STD5.60
2026-03-18 07:57:51 24 19.40 0.120000 41.649648 41.62752893 0 0 0 0 0 0 0 0 STD5.60
2026-03-18 07:52:49 16 18.20 0.080000 41.649648 41.62752893 0 0 0 0 0 0 0 0 STD5.60
2026-03-18 07:47:47 19 16.90 0.095000 41.649648 41.62752893 0 0 0 0 0 0 0 0 STD5.60
2026-03-18 07:42:45 19 17.60 0.095000 41.649648 41.62752893 0 0 0 0 0 0 0 0 STD5.60
2026-03-18 07:37:43 17 17.90 0.085000 41.649648 41.62752893 0 0 0 0 0 0 0 0 STD5.60
2026-03-18 07:32:42 19 16.30 0.095000 41.649648 41.62752893 0 0 0 0 0 0 0 0 STD5.60
2026-03-18 07:27:39 12 17.30 0.060000 41.649648 41.62752893 0 0 0 0 0 0 0 0 STD5.60
2026-03-18 07:22:35 24 19.10 0.120000 41.649648 41.62752893 0 0 0 0 0 0 0 0 STD5.60
2026-03-18 07:17:33 22 17.20 0.110000 41.649648 41.62752893 0 0 0 0 0 0 0 0 STD5.60
2026-03-18 07:12:31 21 15.40 0.105000 41.649648 41.62752893 0 0 0 0 0 0 0 0 STD5.60
Geiger Counter World Map       A real time radiation map.     Copyright 2015 All rights reserved.